Copper Mountain, CO

2:27 PM MDT on September 23, 2017 (GMT -0600)
Copper Mountain

Weather History for KCCU - September, 2012

Change the Weather History Date:

Tuesday, September 18, 2012

  Actual Average Record
Temperature  
Mean Temperature 45 °F -  
Max Temperature 53 °F - 68 °F (2014)
Min Temperature 37 °F - 15 °F (2003)
Degree Days  
Heating Degree Days 20    
Month to date heating degree days  
Cooling Degree Days 0    
Month to date cooling degree days  
Moisture  
Dew Point 18 °F    
Average Humidity 35    
Maximum Humidity 56    
Minimum Humidity 21    
Precipitation  
Precipitation 0.00 in - 0.57 in (2002)
Sea Level Pressure  
Sea Level Pressure 30.57 in    
Wind  
Wind Speed 19 mph (West)    
Max Wind Speed 28 mph    
Max Gust Speed 36 mph    
Visibility 10 miles    
Events      
T = Trace of Precipitation, MM = Missing Value Source: NWS Daily Summary

Daily Weather History Graph

Daily Weather History Graph

Search for Another Location

Airport or City:

Trip Planner

Search our weather history database for the weather conditions in past years. The results will help you decide how hot, cold, wet, or windy it might be!

Date:

Astronomy

Sep. 18, 2012 Rise Set
Actual Time 6:49 AM MDT 7:07 PM MDT
Civil Twilight 6:22 AM MDT 7:34 PM MDT
Nautical Twilight 5:50 AM MDT 8:05 PM MDT
Astronomical Twilight 5:18 AM MDT 8:37 PM MDT
Moon 9:50 AM MDT (9/18) 8:33 PM MDT (9/18)
Length of Visible Light 13h 11m
Length of Day
12h 18m
Waxing Crescent, 9% of the Moon is Illuminated
Sep 18
Waxing Crescent
Sep 22
First Quarter
Sep 29
Full
Oct 8
Last Quarter
Oct 15
New

Hourly Weather History & Observations

Time (MDT) Temp. Windchill Dew Point Humidity Pressure Visibility Wind Dir Wind Speed Gust Speed Precip Events Conditions
12:15 AM 37.4 °F 27.2 °F 21.2 °F 52% 30.52 in 10.0 mi West 19.6 mph - N/A   Clear
12:35 AM 37.4 °F 27.2 °F 21.2 °F 52% 30.52 in 10.0 mi West 19.6 mph - N/A   Clear
12:55 AM 37.4 °F 26.9 °F 19.4 °F 48% 30.52 in 10.0 mi West 20.7 mph - N/A   Clear
1:35 AM 37.4 °F 27.2 °F 19.4 °F 48% 30.51 in 10.0 mi West 19.6 mph - N/A   Clear
2:15 AM 37.4 °F 26.9 °F 21.2 °F 52% 30.52 in 10.0 mi West 20.7 mph - N/A   Clear
2:35 AM 37.4 °F 26.9 °F 21.2 °F 52% 30.51 in 10.0 mi West 20.7 mph - N/A   Clear
2:55 AM 37.4 °F 26.1 °F 21.2 °F 52% 30.51 in 10.0 mi West 24.2 mph - N/A   Clear
3:15 AM 37.4 °F 26.6 °F 19.4 °F 48% 30.51 in 10.0 mi West 21.9 mph - N/A   Clear
3:35 AM 37.4 °F 26.6 °F 19.4 °F 48% 30.52 in 10.0 mi West 21.9 mph - N/A   Clear
3:55 AM 37.4 °F 27.2 °F 21.2 °F 52% 30.52 in 10.0 mi West 19.6 mph - N/A   Clear
4:15 AM 37.4 °F 27.8 °F 21.2 °F 52% 30.52 in 10.0 mi West 17.3 mph - N/A   Clear
4:35 AM 37.4 °F 28.5 °F 21.2 °F 52% 30.53 in 10.0 mi West 15.0 mph - N/A   Clear
4:55 AM 37.4 °F 28.5 °F 23.0 °F 56% 30.53 in 10.0 mi West 15.0 mph - N/A   Clear
5:15 AM 37.4 °F 28.5 °F 21.2 °F 52% 30.54 in 10.0 mi West 15.0 mph - N/A   Clear
5:35 AM 37.4 °F 28.9 °F 21.2 °F 52% 30.54 in 10.0 mi West 13.8 mph - N/A   Clear
5:55 AM 37.4 °F 28.5 °F 19.4 °F 48% 30.54 in 10.0 mi West 15.0 mph - N/A   Clear
6:15 AM 37.4 °F 27.2 °F 17.6 °F 45% 30.55 in 10.0 mi West 19.6 mph - N/A   Clear
6:35 AM 37.4 °F 27.5 °F 17.6 °F 45% 30.55 in 10.0 mi West 18.4 mph - N/A   Clear
6:55 AM 37.4 °F 27.2 °F 17.6 °F 45% 30.55 in 10.0 mi West 19.6 mph - N/A   Clear
7:15 AM 37.4 °F 27.8 °F 17.6 °F 45% 30.56 in 10.0 mi West 17.3 mph - N/A   Clear
7:35 AM 37.4 °F 28.2 °F 17.6 °F 45% 30.57 in 10.0 mi West 16.1 mph - N/A   Clear
7:55 AM 37.4 °F 28.5 °F 17.6 °F 45% 30.57 in 10.0 mi West 15.0 mph - N/A   Clear
8:15 AM 41.0 °F 32.5 °F 17.6 °F 39% 30.58 in 10.0 mi West 17.3 mph 23.0 mph N/A   Clear
8:35 AM 41.0 °F 33.5 °F 17.6 °F 39% 30.59 in 10.0 mi West 13.8 mph 19.6 mph N/A   Clear
8:55 AM 41.0 °F 33.1 °F 17.6 °F 39% 30.59 in 10.0 mi West 15.0 mph - N/A   Clear
9:15 AM 42.8 °F 36.6 °F 19.4 °F 39% 30.59 in 10.0 mi West 11.5 mph - N/A   Clear
9:35 AM 44.6 °F 37.8 °F 19.4 °F 37% 30.60 in 10.0 mi West 15.0 mph - N/A   Clear
9:55 AM 44.6 °F 37.4 °F 19.4 °F 37% 30.60 in 10.0 mi West 16.1 mph 23.0 mph N/A   Clear
10:15 AM 44.6 °F 37.2 °F 19.4 °F 37% 30.60 in 10.0 mi West 17.3 mph 24.2 mph N/A   Clear
10:35 AM 46.4 °F 39.8 °F 19.4 °F 34% 30.60 in 10.0 mi West 16.1 mph 23.0 mph N/A   Clear
10:55 AM 46.4 °F 38.7 °F 17.6 °F 32% 30.60 in 10.0 mi West 20.7 mph 28.8 mph N/A   Clear
11:15 AM 46.4 °F 39.2 °F 15.8 °F 29% 30.60 in 10.0 mi WNW 18.4 mph 29.9 mph N/A   Clear
11:35 AM 46.4 °F 39.0 °F 17.6 °F 32% 30.60 in 10.0 mi West 19.6 mph 26.5 mph N/A   Clear
11:55 AM 48.2 °F - 15.8 °F 27% 30.60 in 10.0 mi West 21.9 mph 26.5 mph N/A   Clear
12:15 PM 48.2 °F - 19.4 °F 32% 30.61 in 10.0 mi West 9.2 mph 27.6 mph N/A   Clear
12:35 PM 51.8 °F - 17.6 °F 26% 30.60 in 10.0 mi West 21.9 mph 29.9 mph N/A   Clear
12:55 PM 51.8 °F - 19.4 °F 28% 30.61 in 10.0 mi West 18.4 mph 29.9 mph N/A   Clear
1:15 PM 51.8 °F - 17.6 °F 26% 30.60 in 10.0 mi West 24.2 mph 34.5 mph N/A   Clear
1:35 PM 51.8 °F - 17.6 °F 26% 30.60 in 10.0 mi West 21.9 mph 35.7 mph N/A   Clear
1:55 PM 51.8 °F - 17.6 °F 26% 30.59 in 10.0 mi West 19.6 mph 33.4 mph N/A   Clear
2:15 PM 53.6 °F - 19.4 °F 26% 30.59 in 10.0 mi West 25.3 mph 32.2 mph N/A   Clear
2:35 PM 53.6 °F - 17.6 °F 24% 30.59 in 10.0 mi West 19.6 mph 34.5 mph N/A   Clear
2:55 PM 53.6 °F - 17.6 °F 24% 30.59 in 10.0 mi West 23.0 mph 28.8 mph N/A   Clear
3:15 PM 53.6 °F - 17.6 °F 24% 30.58 in 10.0 mi West 25.3 mph 34.5 mph N/A   Clear
3:55 PM 53.6 °F - 15.8 °F 22% 30.58 in 10.0 mi West 27.6 mph 34.5 mph N/A   Clear
4:15 PM 53.6 °F - 14.0 °F 21% 30.58 in 10.0 mi West 21.9 mph 34.5 mph N/A   Clear
4:35 PM 53.6 °F - 15.8 °F 22% 30.58 in 10.0 mi West 23.0 mph 34.5 mph N/A   Clear
4:55 PM 53.6 °F - 15.8 °F 22% 30.58 in 10.0 mi West 19.6 mph 28.8 mph N/A   Clear
5:15 PM 53.6 °F - 15.8 °F 22% 30.57 in 10.0 mi West 25.3 mph 31.1 mph N/A   Clear
5:35 PM 53.6 °F - 14.0 °F 21% 30.57 in 10.0 mi West 26.5 mph 33.4 mph N/A   Clear
5:55 PM 53.6 °F - 15.8 °F 22% 30.59 in 10.0 mi West 17.3 mph - N/A   Clear
6:15 PM 53.6 °F - 17.6 °F 24% 30.59 in 10.0 mi West 17.3 mph 23.0 mph N/A   Clear
6:35 PM 53.6 °F - 17.6 °F 24% 30.58 in 10.0 mi West 21.9 mph 27.6 mph N/A   Clear
6:55 PM 51.8 °F - 15.8 °F 24% 30.58 in 10.0 mi West 20.7 mph 27.6 mph N/A   Clear
7:15 PM 50.0 °F - 15.8 °F 26% 30.58 in 10.0 mi West 24.2 mph 28.8 mph N/A   Clear
7:35 PM 50.0 °F - 15.8 °F 26% 30.59 in 10.0 mi West 20.7 mph - N/A   Clear
7:55 PM 48.2 °F - 14.0 °F 25% 30.59 in 10.0 mi West 20.7 mph 26.5 mph N/A   Clear
8:15 PM 46.4 °F 39.0 °F 15.8 °F 29% 30.59 in 10.0 mi West 19.6 mph 25.3 mph N/A   Clear
8:35 PM 46.4 °F 39.5 °F 15.8 °F 29% 30.59 in 10.0 mi West 17.3 mph 24.2 mph N/A   Clear
8:55 PM 46.4 °F 39.0 °F 15.8 °F 29% 30.59 in 10.0 mi West 19.6 mph 23.0 mph N/A   Clear
9:15 PM 46.4 °F 39.8 °F 15.8 °F 29% 30.60 in 10.0 mi West 16.1 mph - N/A   Clear
9:55 PM 46.4 °F 39.5 °F 15.8 °F 29% 30.60 in 10.0 mi West 17.3 mph - N/A   Clear
10:35 PM 44.6 °F 37.2 °F 15.8 °F 31% 30.61 in 10.0 mi West 17.3 mph - N/A   Clear
10:55 PM 44.6 °F 37.2 °F 17.6 °F 34% 30.60 in 10.0 mi West 17.3 mph 23.0 mph N/A   Clear
11:15 PM 44.6 °F 37.2 °F 15.8 °F 31% 30.60 in 10.0 mi West 17.3 mph - N/A   Clear
11:55 PM 44.6 °F 37.2 °F 15.8 °F 31% 30.60 in 10.0 mi West 17.3 mph - N/A   Clear